You are here:

home

Questo sito é stato creato esclusivamente per valorizzare il lavoro svolto dall' intero
155° Gruppo E.T.S. del' Aeronautica Militare e non ha nessun fine commerciale ne di lucro. 
Pertanto, l' utilizzo delle foto é consentito solo per uso PRIVATO.

 

 
In alto

LIMS - Piacenza, San Damiano

[source: ADDS]
METAR
LIMS 270655Z 11007KT 070V150 9999 FEW025 17/16 Q1014 RMK SCT VIS MIN 9999 WIND THR30 11004KT BLU =
TAF
TAF LIMS 270500Z 2706/2715 10006KT 9999 FEW025 SCT080 BECMG 2712/2714 CAVOK =
In alto
WEB MASTER
Paolo "paolopaso" Pasotti
______________________________________
Last Update: 25/02/2011
_____________________________________________________________________________________________________________
© 2010 / 2011 - Tutti i diritti riservati
 
 
In alto